Погода в Тихорецке

Погода в Тихорецке : погода сейчас, прогноз погоды и архив. Всё, что Вы хотите узнать о погоде в Тихорецке!

Хотите узнать прогноз погоды в Тихорецке? Тогда Вам сюда: Погода в Тихорецке

Поиск расширенной информации на нашем сайте:

Другие новости

Новости СМИ2

Главная страница сайта

Новости сайта

03.07.2017

Напоминаем, что на нашем специализированном сайте Метеоцентр.Азия вы можете получить высокодетализированные автоматические прогнозы погоды по пунктам России, СНГ и мира в авиационном формате (включающие направление и скорость ветра, видимость, явления погоды, количество и форму облачности, нижнюю и верхнюю границу облачности).


Погода в Тихорецке - сегодня

Время (UTC), дата Ветер
(°,м/с) 
Видим.   Явления Облачность Т
(°С)
Тd
(°С)
f(%) Тe
(°С)
Pmin
(гПа)
dP
(гПа)
Po
(мм)
O2
(г/м3)
Тmin Tmax R s Состояние
почвы
12 09.12.17 тихо ()   10 км    4/0 верхняя 
[Ci fib]
+10.3 +5.2 71 +10  1019.9  -0.6  758  293           
15 09.12.17 тихо ()   10 км    ясно 
+6.4 +3.3 81 +6  1020.4  0.3  758  298    +10.6       
18 09.12.17 120 (ЮВ) 10 км    ясно 
+4.9 +1.3 77 +5  1020.4  758  300           
21 09.12.17 тихо ()   10 км    ясно 
+3.4 +0.1 79 +3  1020.5  758  302           
00 10.12.17 тихо ()   10 км    ясно 
+2.3 -0.3 83 +2  1020.3  -0.2  758  303           
03 10.12.17 140 (ЮВ) 10 км    10/0 верхняя 
[Ci fib]
+2.4 -1.2 77 +1    -1.1  757  303  +2         
06 10.12.17 тихо ()   10 км    4/0 верхняя 
[Cc]
+3.8 -2.4 64 +4  1018.7  -0.4  757  301           
09 10.12.17 130 (ЮВ) 10 км    ясно 
+8.7 +0.4 56 +8  1016.9  -1.6  756  295           
12 10.12.17 тихо ()   10 км    ясно 
+10.6 +1.8 54 +11  1014.9  -2  754  292           
15 10.12.17 110 (В) 10 км    4/0 верхняя 
[Cs]
+7.1 +2.6 73 +6  1013.7  -1.3  753  295    +11.1       
18 10.12.17 130 (ЮВ) 10 км    6/0 средняя 
[Ac As]
+4.7 -0.1 71 +6  1013.3  -0.5  753  298           
21 10.12.17 тихо ()   10 км    10/10 1000 м 
[Sc]
+3.8 -0.8 72 +4  1013.8  0.5  753  299           
00 11.12.17 тихо ()   10 км    10/10 1000 м 
[Sc]
+6 +3.6 85 +6  1017.4  3.6  756  297           
03 11.12.17 190 (Ю) 10 км  {ливн. осадки}  6/0 средняя 
[Ac As]
+0.4   1021  3.4  758    +3.2       
06 11.12.17 190 (Ю) 10 км    ясно 
+1.9 -0.5 84 +3  1024.5  3.4  761  305  +1.7         
09 11.12.17 230 (ЮЗ) 10 км    6/6 1000 м 
[Sc]
+5.6 +0.6 70 +5  1025.6  1.2  762  301           
12 11.12.17 тихо ()   10 км    6/0 верхняя 
[Ci fib]
+6.1 -0.5 63 +6  1025.3  -0.2  762  300           
15 11.12.17 тихо ()   10 км    10/0 верхняя 
[Ci fib]
+5.2 +0.6 72 +5  1026.4  1.1  763  301    +7.1       
18 11.12.17 150 (ЮВ) 10 км    10/0 верхняя 
[Cs]
+4.8 +0.9 76 +4  1026.1  -0.4  762  302           
21 11.12.17 130 (ЮВ) 10 км    10/0 средняя 
[As trans]
+3.4 +0.3 80 +2  1025.6  -0.5  762  303           
00 12.12.17 170 (Ю) 10 км    10/0 
+4.5 +0.5 75 +4  1025.3  -0.3  762  302           
03 12.12.17 тихо ()   10 км    10/0 верхняя 
[Ci sp]
+4.3 +0.6 77 +4  1024.6  -0.7  761  302  +3.3         
06 12.12.17 150 (ЮВ) 10 км    9/9 600 м 
[Sc]
+5.1 +0.5 72 +5  1024.5  761  301           
09 12.12.17 150 (ЮВ) 10 км    10/10 600 м кучево-дожд. 
[Cb cap]
+8.6 +1.5 61 +8  1023.7  -0.6  761  297           
12 12.12.17 160 (Ю) 10 км    8/8 600 м 
[Sc]
+11 +3.6 60 +11  1022.5  -1.1  760  294           
Время (UTC), дата Ветер
(°,м/с) 
Видим.   Явления Облачность Т
(°С)
Тd
(°С)
f(%) Тe
(°С)
Pmin
(гПа)
dP
(гПа)
Po
(мм)
O2
(г/м3)
Тmin Tmax R s Состояние
почвы

Для получения пояснительной информации подведите курсор к названию столбца.

ПОГОДА в Тихорецке - архив

Всё, что Вы хотите узнать о погоде в Тихорецке - удобно и подробно!

Выберите нужную дату (начиная с 1 января 2015* года) и нажмите кнопку "Найти".
Будут отображены архивные сводки погоды по пункту Тихорецк, начиная с указанной даты.


Отображать данные в формате CSV (для использования в таблицах Excel)


Внимание! Наш архив погоды предназначен исключительно для личного некоммерческого использования в познавательных целях. Если Вам необходимы официальные справки о состоянии погоды (для производственных, юридических, коммерческих и т.п. целей), обращайтесь в органы Росгидромета.

*Примечание: данная дата относится к архиву по метеостанциям СССР (Россия, СНГ, Балтия).
Архив по метеостанциям Зарубежной Европы и Азии (кроме Китая) хранится 10 дней, по другим регионам земного шара (Китай, Африка, Америка, Австралия, Океания) - 1 день.

Тихорецк - район местоположения метеостанции


Название, широта, долгота, высота метеостанции:
Тихорецк 45.9°ш. 40.1°д. 78 м над ур. моря [Российская Федерация]

Дополнительная информация

В oтличие oт бoльшинства пoгoдных сайтoв мы публикуем пoдрoбную метеoинфoрмацию в детальнoм прoфессиoнальнoм фoрмате.

Характеристики температуры и влажнoсти вoздуха измеряются на высoте 2 м в тени вдали oт зданий и деревьев.
Скoрoсть ветра измеряется на высoте 10 м (на урoвне рoста челoвека скoрoсть ветра ниже в 1.5-2 раза). Если метеoстанция нахoдится в гoрoде или в лесу, тo скoрoсть ветра занижена на 2-4 м/с пo сравнению с oткрытым местoм. Скoрoсть ветра над акватoриями крупных рек и oзёр, а также на вершинах хoлмoв на 2-5 м/с выше, чем в oбычных услoвиях.
Атмoсфернoе давление в разных тoчках местнoсти мoжет значительнo oтличаться oт давления на метеoстанции, в зависимoсти oт услoвий рельефа (при пoдъёме на 10 м давление пoнижается примернo на 1 мм рт.ст.).